Flag for Portugal Weather past 2 weeks in Guimarães, Portugal

Now
59 °F

Cool.


Feels Like: 59 °F
Forecast: 54 / 76 °F
Wind: 1 mph from North

Location: Porto / Pedras Rubras

Current Time: Sep 3, 2015 at 4:12:44 AM

Latest Report: Sep 3, 2015 at 3:00 AM


Visibility: N/A

Pressure: 29.99 "Hg

Humidity: 86%

Dew point: 55 °F

Location of GuimarãesLocation

Historic Weather in Guimarães — Graph

°F

Guimarães temperature yesterday

Maximum temperature yesterday: 69 °F (at 6:00 PM)
Minimum temperature yesterday: 62 °F (at 11:00 PM)
Average temperature yesterday: 65 °F

Past Weeks' High & Low Weather Summary

 TemperatureHumidityPressure
High82 °F (Aug 30, 12:00 PM)95% (Aug 21, 9:00 AM)30.15 "Hg (Aug 21, 9:00 AM)
Low57 °F (Aug 25, 6:00 AM)33% (Aug 19, 4:00 PM)29.84 "Hg (Aug 23, 4:00 PM)
Average67 °F78%30.02 "Hg
* Reported Aug 19 2:00 AM — Sep 3 2:00 AM, Guimarães, Weather by CustomWeather, © 2015

Note: Actual official high and low records may vary slightly from our data, if they occured in-between our weather recording intervals... More about our weather records

Advertising

Guimarães weather history for previous 24 hours

 ConditionsComfort  
Time TempWeatherWind HumidityBarometerVisibility
2:00 AM
Thu, Sep 3
62 °FCool.2 mph85%29.99 "HgN/A
1:00 AM62 °FMild.2 mph84%29.99 "HgN/A
12:00 AM63 °FMild.2 mph84%29.98 "HgN/A
11:00 PM
Wed, Sep 2
62 °FCool.2 mph85%29.97 "HgN/A
9:00 PM63 °FMild.1 mph81%29.98 "HgN/A
8:00 PM64 °FMild.2 mph78%29.97 "HgN/A
7:00 PM66 °FMild.3 mph72%29.97 "HgN/A
6:00 PM69 °FMild.5 mph66%29.97 "HgN/A
5:00 PM69 °FMild.5 mph65%29.97 "HgN/A
4:00 PM67 °FMild.3 mph71%29.98 "HgN/A
3:00 PM67 °FMild.3 mph73%30.00 "HgN/A
2:00 PM67 °FMild.3 mph73%30.00 "HgN/A
1:00 PM67 °FMild.3 mph72%30.01 "HgN/A
12:00 PM66 °FMild.2 mph74%30.02 "HgN/A
11:00 AM65 °FMild.2 mph76%30.02 "HgN/A
10:00 AM65 °FMild.1 mph77%30.01 "HgN/A
9:00 AM64 °FMild.2 mph80%29.99 "HgN/A
8:00 AM64 °FMild.2 mph82%29.99 "HgN/A
7:00 AM64 °FMild.3 mph83%29.98 "HgN/A
6:00 AM64 °FMild.2 mph84%29.98 "HgN/A
5:00 AM63 °FMild.5 mph85%29.98 "HgN/A
Weather by CustomWeather, © 2015

See weather overviewHow to use our weather pages